Regional Weather Roundup
Issued by NWS State College, PA

Home | Current Version | Previous Version | Graphics & Text | Print | Product List | Glossary Off
Versions: 1 2 3 4 5 6 7 8 9 10 11 12 13 14 15 16 17 18 19 20 21 22 23 24 25 26 27 28 29 30 31 32 33 34 35 36 37 38 39 40 41 42 43 44 45 46 47 48 49 50

000
ASUS41 KCTP 250803
RWRCTP

REGIONAL WEATHER ROUNDUP
NATIONAL WEATHER SERVICE STATE COLLEGE PA
400 AM EDT FRI JUL 25 2014

Note: "fair" indicates few or no clouds below 12,000 feet with no
significant weather and/or obstructions to visibility.

* = STATION THAT DOES NOT REPORT PRECIPITATION /E.G. RAIN...SNOW...ETC/
    THUNDER OR FOG.

PAZ002>004-007>009-013>016-020>023-029>032-250900-
WESTERN PENNSYLVANIA

CITY           SKY/WX    TMP DP  RH WIND       PRES   REMARKS
ERIE           CLEAR     55  48  77 S5        30.05S
MEADVILLE      CLEAR     52  47  83 CALM      30.07S
FRANKLIN*      CLEAR     46  43  87 CALM      30.08S
NEW CASTLE     FOG       46  46 100 CALM      30.08F VSB 1/4
BEAVER COUNTY  NOT AVBL
BUTLER*        CLEAR     48  45  87 CALM      30.08S
PITTSBURGH INT CLEAR     54  50  86 NW5       30.06F
PITTSBURGH     CLEAR     57  48  72 N3        30.05F
INDIANA*       MOCLDY    52  50  93 CALM      30.10S
LATROBE        CLEAR     52  52 100 CALM      30.07S
WASHINGTON CO* CLEAR     48  46  93 CALM      30.07S
$$

PAZ004>006-010>012-017>019-024>028-033>037-041-042-045-046-049>053-250900-
CENTRAL PENNSYLVANIA

CITY           SKY/WX    TMP DP  RH WIND       PRES   REMARKS
BRADFORD       CLEAR     44  40  85 CALM      30.07S
DUBOIS         CLEAR     51  48  89 CALM      30.06S
CLEARFIELD     CLEAR     50  48  93 CALM      30.07R
JOHNSTOWN      CLEAR     53  49  86 CALM      30.07S
ALTOONA        CLEAR     54  52  93 CALM      30.06S
STATE COLLEGE  PTCLDY    53  49  86 CALM      30.05R
WILLIAMSPORT   CLEAR     51  47  86 CALM      30.03S
SELINSGROVE    CLEAR     50  48  93 CALM      30.03S
FT INDIANTOWN  CLEAR     53  52  97 NW2       30.01S
CAPITAL CITY   CLEAR     58  50  75 CALM      30.01S
HARRISBURG     CLEAR     60  51  72 N3        30.00S
YORK           CLEAR     54  53  97 CALM      30.01S
$$

PAZ038>040-043-044-047-048-054-055-060>062-067>071-250900-
EASTERN PENNSYLVANIA

CITY           SKY/WX    TMP DP  RH WIND       PRES   REMARKS
SCRANTON       CLEAR     51  47  86 E3        30.03S
MOUNT POCONO   CLEAR     52  32  46 N7        30.02S
ALLENTOWN      CLEAR     58  50  75 W5        29.99S
QUAKERTOWN*    SUNNY     55  54  94 CALM      29.99F
READING        CLEAR     59  50  72 NW5       29.99F
LANCASTER      CLEAR     58  50  75 SW3       30.00S
COATESVILLE    SUNNY     59  50  72 N6        30.00S
POTTSTOWN      CLEAR     59  51  75 W3        29.99F
BLUE BELL      CLEAR     57  54  88 CALM      29.97S
DOYLESTOWN     CLEAR     60  52  74 N6        29.97S
WILLOW GROVE   NOT AVBL
NORTH PHILA    PTCLDY    64  51  62 NW6       29.98R
PHILADELPHIA   MOCLDY    66  51  58 N7        29.97S
$$


USA.gov is the U.S. government's official web portal to all federal, state and local government web resources and services.